User: anonymous   Login
Location: Unspecified
(0.0000°N, 0.0000°E)
Time: 06:47:21
(UTC+02:00)
Language:

Meteor 2-8 Rocket - Orbit

View from above orbital plane
View from above orbital plane
View from above satellite
View from above satellite

Ground track
Ground track

The orbit data is extracted from the following two-line orbital elements,

1 13114U 82025B   16125.65622193  .00000035  00000-0  17637-4 0  9992
2 13114  82.5395 167.8434 0013768 213.1404 260.0166 13.84652897723878
Epoch (UTC): 04 May 2016 15:44:57
Eccentricity: 0.0013768
inclination: 82.5395°
perigee height: 937 km
apogee height: 957 km
right ascension of ascending node: 167.8434°
argument of perigee: 213.1404°
revolutions per day: 13.84652897
mean anomaly at epoch: 260.0166°
orbit number at epoch: 72387

The dashed part of the orbit path shows where the satellite is in the earth's shadow,  

DLR